This is the latest recevied weather packets stored in our database for station/object WB5LFS-1. If no packets are shown the sender has not sent any weather packets the latest 10 day(s).
| Time | Temp. | Humidity | Pressure | Rain* | Wind** | Luminosity | Snow |
|---|---|---|---|---|---|---|---|
| 1777565516 | 17.78° C | 68% | 1009.2 hPa | 0 mm | - | - | - |
| 1777564617 | 17.78° C | 68% | 1009.5 hPa | 0 mm | - | - | - |
| 1777563717 | 17.78° C | 67% | 1009.3 hPa | 0 mm | - | - | - |
| 1777562817 | 17.78° C | 69% | 1009.5 hPa | 0 mm | - | - | - |
| 1777561917 | 17.22° C | 70% | 1009.4 hPa | 0 mm | - | - | - |
| 1777561017 | 17.22° C | 74% | 1009.4 hPa | 0 mm | - | - | - |
| 1777560117 | 16.67° C | 74% | 1009.4 hPa | 0 mm | - | - | - |
| 1777559217 | 16.67° C | 76% | 1009.4 hPa | 0 mm | - | - | - |
| 1777558317 | 16.11° C | 75% | 1009.6 hPa | 0 mm | - | - | - |
| 1777557417 | 16.11° C | 76% | 1009.7 hPa | 0 mm | - | - | - |
| 1777556517 | 16.11° C | 80% | 1009.7 hPa | 0 mm | - | - | - |
| 1777555617 | 15.56° C | 79% | 1009.3 hPa | 0 mm | - | - | - |
| 1777554717 | 15.56° C | 81% | 1009.1 hPa | 0 mm | - | - | - |
| 1777553817 | 15.56° C | 80% | 1008.9 hPa | 0 mm | - | - | - |
| 1777552917 | 15.56° C | 82% | 1008.9 hPa | 0 mm | - | - | - |
| 1777552017 | 15° C | 85% | 1008.7 hPa | 0 mm | - | - | - |
| 1777551117 | 15° C | 86% | 1008.9 hPa | 0 mm | - | - | - |
| 1777550217 | 15° C | 88% | 1009.1 hPa | 0 mm | - | - | - |
| 1777549317 | 15° C | 90% | 1008.8 hPa | 0 mm | - | - | - |
| 1777548417 | 14.44° C | 91% | 1008.9 hPa | 0 mm | - | - | - |
| 1777547517 | 14.44° C | 93% | 1008.6 hPa | 0 mm | - | - | - |
| 1777546617 | 15° C | 95% | 1008.4 hPa | 0 mm | - | - | - |
| 1777545717 | 15° C | 95% | 1007.9 hPa | 0 mm | - | - | - |
| 1777544817 | 15° C | 95% | 1007.7 hPa | 0 mm | - | - | - |
| 1777543917 | 15° C | 95% | 1007.6 hPa | 0 mm | - | - | - |
* Rain latest hour (hover to see other rain measurements)
** Current wind speed in m/s (hover to see current wind gust speed)